Regional Weather Roundup
Issued by NWS New Orleans/Baton Rouge, LA

Home | Current Version | Previous Version | Text Only | Print | Product List | Glossary Off
Versions: 1 2 3 4 5 6 7 8 9 10 11 12 13 14 15 16 17 18 19 20 21 22 23 24 25 26 27 28 29 30 31 32 33 34 35 36 37 38 39 40 41 42 43 44 45 46 47 48 49 50

798
ASUS44 KLIX 010610
RWRLIX
NEW ORLEANS REGIONAL WEATHER ROUNDUP
NATIONAL WEATHER SERVICE NEW ORLEANS LA
100 AM CDT WED OCT 01 2014

NOTE: "FAIR" INDICATES FEW OR NO CLOUDS BELOW 12,000 FEET WITH NO
      SIGNIFICANT WEATHER AND/OR OBSTRUCTIONS TO VISIBILITY.
      SKY/WX - SKY CONDITION AND SIGNIFICANT WEATHER.
      TMP - AIR TEMPERATURE.     DP    - DEWPOINT TEMPERATURE.
      RH  - RELATIVE HUMIDITY.   PRES  - PRESSURE.
      HI  - HEAT INDEX.          WCI   - WIND CHILL INDEX.

*  THESE STATIONS ARE NOT NWS OR FAA STATIONS AND ARE NOT UNDER
   NWS QUALITY CONTROL.

LAZ038-040-048-061>063-065>067-069-010700-
SOUTHEAST LOUISIANA

CITY           SKY/WX    TMP DP  RH WIND       PRES   REMARKS
N.O. AUDUBON   NOT AVBL
N.O. INTL ARPT PTCLDY    76  71  85 SE5       29.88S
6HR MIN TEMP:  76; 6HR MAX TEMP:  81;

N.O. LAKEFRONT CLEAR     76  72  87 SE7       29.88F
6HR MIN TEMP:  76; 6HR MAX TEMP:  80;

N.O. DOWNTOWN*   N/A     77  70  78 SE6       29.89R
6HR MIN TEMP:  77; 6HR MAX TEMP:  81;

SLIDELL        CLEAR     71  68  90 CALM      29.88S
6HR MIN TEMP:  70; 6HR MAX TEMP:  79;

BATON ROUGE    CLEAR     74  71  91 E5        29.87S
6HR MIN TEMP:  73; 6HR MAX TEMP:  82;

BOOTHVILLE     CLEAR     77  74  90 E5        29.89R
6HR MIN TEMP:  77; 6HR MAX TEMP:  79;

BELLE CHASSE   PTCLDY    75  71  87 SE3       29.88R
6HR MIN TEMP:  74; 6HR MAX TEMP:  79;

BOGALUSA*        N/A     70  67  90 CALM      29.90S FOG
6HR MIN TEMP:  69; 6HR MAX TEMP:  80;

GALLIANO*      NOT AVBL
NEW ROADS*     CLOUDY    75  72  90 CALM      29.87R
6HR MIN TEMP:  75; 6HR MAX TEMP:  81;

GONZALES*        N/A     75  75 100 CALM      29.87S
6HR MIN TEMP:  75; 6HR MAX TEMP:  82;

HAMMOND*       CLEAR     72  68  88 CALM      29.90S
HOUMA*         PTCLDY   N/A N/A N/A CALM      29.86F
PORT FOURCHON* CLEAR     81  73  78 SE12      29.89F

$$

MSZ070-080>082-010700-
SOUTHERN MISSISSIPPI

CITY           SKY/WX    TMP DP  RH WIND       PRES   REMARKS
MCCOMB         CLEAR     72  70  93 SE3       29.89S FOG
6HR MIN TEMP:  72; 6HR MAX TEMP:  81;

GULFPORT       MOCLDY    72  70  93 CALM      29.88S
6HR MIN TEMP:  72; 6HR MAX TEMP:  78;

BILOXI         PTCLDY    74  73  98 E2        29.89S
6HR MIN TEMP:  73; 6HR MAX TEMP:  79;

PASCAGOULA     CLEAR     66  66 100 CALM      29.89F FOG
6HR MIN TEMP:  66; 6HR MAX TEMP:  74;


$$

COASTAL OBSERVATIONS
LAKE AND NEARSHORE STATIONS

STATION/POSITION TIME  TEMP    WIND        PRES    WAVE
                       AIR SEA DIR/SP/G            HT/PER
                 (UTC) (F)     (DEG/KT/KT) (MB)    (FT/S)
PASCAGOULA       0600   77     110/  9/ 10 1011.5
WAVELAND YACHT   0600   78     160/ 11/ 12 1011.3
GRAND ISLE       0600   79 82  120/  7/ 10 1012.1
SOUTHWEST PASS   0600   80 85  110/ 14/ 16 1011.8
NEW CANAL        0600   76 77   CALM  /  1 1012.2
SHELL BEACH      0600   77 76  120/  8/  9 1011.8

OFFSHORE STATIONS

STATION/POSITION TIME  TEMP    WIND        PRES    WAVE
                       AIR SEA DIR/SP/G            HT/PER
                 (UTC) (F)     (DEG/KT/KT) (MB)    (FT/S)
64 S DAUPHIN ISL 0500   79 82  120/ 10/ 12 1012.3    2/ 5

$$




USA.gov is the U.S. government's official web portal to all federal, state and local government web resources and services.